Time,TemperatureF,DewpointF,PressureIn,WindDirection,WindDirectionDegrees,WindSpeedMPH,WindSpeedGustMPH,Humidity,HourlyPrecipIn,Conditions,Clouds,dailyrainin,SolarRadiationWatts/m^2,SoftwareType,DateUTC
2013-03-17 00:10:00,39.5,35.4,29.92,SE,133,4.0,6.0,85,0.00,,,0.00,0,Wunderground v.1.15,2013-03-17 07:10:00,
2013-03-17 00:16:00,39.3,35.2,29.92,SE,136,3.0,6.0,85,0.00,,,0.00,0,Wunderground v.1.15,2013-03-17 07:16:00,
2013-03-17 00:30:00,39.3,35.2,29.93,SSE,168,2.0,2.0,85,0.00,,,0.00,0,Wunderground v.1.15,2013-03-17 07:30:00,
2013-03-17 00:36:00,39.3,35.2,29.93,SSW,202,2.0,2.0,85,0.00,,,0.00,0,Wunderground v.1.15,2013-03-17 07:36:00,
2013-03-17 00:46:00,39.2,35.1,29.93,SSW,196,1.0,2.0,85,0.00,,,0.00,0,Wunderground v.1.15,2013-03-17 07:46:00,
2013-03-17 00:56:00,39.3,35.2,29.93,South,169,3.0,3.0,85,0.00,,,0.00,0,Wunderground v.1.15,2013-03-17 07:56:00,
2013-03-17 01:06:00,39.3,35.2,29.94,South,182,1.0,3.0,85,0.00,,,0.00,0,Wunderground v.1.15,2013-03-17 08:06:00,
2013-03-17 01:17:00,39.5,35.4,29.95,South,176,1.0,3.0,85,0.00,,,0.00,0,Wunderground v.1.15,2013-03-17 08:17:00,
2013-03-17 01:26:00,39.5,35.4,29.95,SSE,168,1.0,3.0,85,0.00,,,0.00,0,Wunderground v.1.15,2013-03-17 08:26:00,
2013-03-17 01:41:00,39.5,35.4,29.95,SSW,198,1.0,3.0,85,0.00,,,0.00,0,Wunderground v.1.15,2013-03-17 08:41:00,
2013-03-17 01:47:00,39.5,35.1,29.95,South,174,1.0,3.0,84,0.00,,,0.00,0,Wunderground v.1.15,2013-03-17 08:47:00,
2013-03-17 01:56:00,39.5,35.1,29.95,SE,145,1.0,2.0,84,0.00,,,0.00,0,Wunderground v.1.15,2013-03-17 08:56:00,
2013-03-17 02:05:00,39.3,34.9,29.95,SE,133,1.0,3.0,84,0.00,,,0.00,0,Wunderground v.1.15,2013-03-17 09:05:00,
2013-03-17 02:20:00,39.3,35.2,29.96,ESE,112,1.0,1.0,85,0.00,,,0.00,0,Wunderground v.1.15,2013-03-17 09:20:00,
2013-03-17 02:30:00,39.5,35.1,29.97,ESE,112,1.0,1.0,84,0.00,,,0.00,0,Wunderground v.1.15,2013-03-17 09:30:00,
2013-03-17 02:40:00,39.5,34.8,29.97,SE,131,1.0,1.0,83,0.00,,,0.00,0,Wunderground v.1.15,2013-03-17 09:40:00,
2013-03-17 02:46:00,39.5,34.8,29.97,SE,131,0.0,1.0,83,0.00,,,0.00,0,Wunderground v.1.15,2013-03-17 09:46:00,
2013-03-17 02:56:00,39.3,34.6,29.97,SE,126,1.0,1.0,83,0.00,,,0.00,0,Wunderground v.1.15,2013-03-17 09:56:00,
2013-03-17 03:06:00,39.3,34.6,29.98,ESE,114,2.0,6.0,83,0.00,,,0.00,0,Wunderground v.1.15,2013-03-17 10:06:00,
2013-03-17 03:16:00,39.3,34.6,29.98,ESE,113,3.0,3.0,83,0.00,,,0.00,0,Wunderground v.1.15,2013-03-17 10:16:00,
2013-03-17 03:26:00,39.3,34.6,29.98,ESE,103,2.0,2.0,83,0.00,,,0.00,0,Wunderground v.1.15,2013-03-17 10:26:00,
2013-03-17 03:36:00,39.6,34.9,29.99,ESE,117,2.0,3.0,83,0.00,,,0.00,0,Wunderground v.1.15,2013-03-17 10:36:00,
2013-03-17 03:47:00,39.6,34.6,29.99,ESE,116,2.0,2.0,82,0.00,,,0.00,0,Wunderground v.1.15,2013-03-17 10:47:00,
2013-03-17 03:55:00,39.6,34.9,29.99,South,172,3.0,3.0,83,0.00,,,0.00,0,Wunderground v.1.15,2013-03-17 10:55:00,
2013-03-17 04:05:00,39.6,34.9,30.00,SE,138,1.0,2.0,83,0.00,,,0.00,0,Wunderground v.1.15,2013-03-17 11:05:00,
2013-03-17 04:15:00,39.8,34.8,30.00,SE,138,2.0,2.0,82,0.00,,,0.00,0,Wunderground v.1.15,2013-03-17 11:15:00,
2013-03-17 04:26:00,39.9,34.9,30.00,SSE,165,2.0,2.0,82,0.00,,,0.00,0,Wunderground v.1.15,2013-03-17 11:26:00,
2013-03-17 04:36:00,39.9,34.5,30.00,South,184,2.0,5.0,81,0.00,,,0.00,0,Wunderground v.1.15,2013-03-17 11:36:00,
2013-03-17 04:50:00,39.9,34.5,30.01,South,169,2.0,5.0,81,0.00,,,0.00,0,Wunderground v.1.15,2013-03-17 11:50:00,
2013-03-17 04:56:00,39.9,34.5,30.01,SSE,164,1.0,5.0,81,0.00,,,0.00,0,Wunderground v.1.15,2013-03-17 11:56:00,
2013-03-17 05:06:00,39.9,34.5,30.01,South,171,1.0,5.0,81,0.00,,,0.00,0,Wunderground v.1.15,2013-03-17 12:06:00,
2013-03-17 05:16:00,39.9,34.2,30.02,SSE,167,1.0,2.0,80,0.00,,,0.00,0,Wunderground v.1.15,2013-03-17 12:16:00,
2013-03-17 05:26:00,39.9,34.2,30.02,SSE,168,1.0,2.0,80,0.00,,,0.00,0,Wunderground v.1.15,2013-03-17 12:26:00,
2013-03-17 05:36:00,39.9,34.5,30.02,South,172,1.0,1.0,81,0.00,,,0.00,0,Wunderground v.1.15,2013-03-17 12:36:00,
2013-03-17 05:46:00,39.9,34.2,30.02,SE,126,1.0,1.0,80,0.00,,,0.00,0,Wunderground v.1.15,2013-03-17 12:46:00,
2013-03-17 05:51:00,39.9,34.5,30.02,SE,126,1.0,1.0,81,0.00,,,0.00,0,Wunderground v.1.15,2013-03-17 12:51:00,
2013-03-17 05:56:00,39.9,34.2,30.02,SSE,152,1.0,1.0,80,0.00,,,0.00,0,Wunderground v.1.15,2013-03-17 12:56:00,
2013-03-17 06:07:00,39.9,34.2,30.03,South,179,1.0,3.0,80,0.00,,,0.00,0,Wunderground v.1.15,2013-03-17 13:07:00,
2013-03-17 06:16:00,39.9,34.2,30.03,SSW,195,1.0,2.0,80,0.00,,,0.00,0,Wunderground v.1.15,2013-03-17 13:16:00,
2013-03-17 06:26:00,39.9,34.2,30.03,SE,136,1.0,1.0,80,0.00,,,0.00,0,Wunderground v.1.15,2013-03-17 13:26:00,
2013-03-17 06:37:00,39.9,34.5,30.04,SE,143,1.0,1.0,81,0.00,,,0.00,0,Wunderground v.1.15,2013-03-17 13:37:00,
2013-03-17 06:47:00,39.8,34.1,30.05,SSE,162,2.0,2.0,80,0.00,,,0.00,0,Wunderground v.1.15,2013-03-17 13:47:00,
2013-03-17 06:55:00,39.5,33.8,30.05,SE,143,3.0,3.0,80,0.00,,,0.00,0,Wunderground v.1.15,2013-03-17 13:55:00,
2013-03-17 07:05:00,39.5,33.8,30.05,SSW,199,2.0,2.0,80,0.00,,,0.00,0,Wunderground v.1.15,2013-03-17 14:05:00,
2013-03-17 07:15:00,39.5,33.8,30.06,South,191,0.0,2.0,80,0.00,,,0.00,0,Wunderground v.1.15,2013-03-17 14:15:00,
2013-03-17 07:26:00,39.5,34.2,30.06,South,191,0.0,0.0,81,0.00,,,0.00,5,Wunderground v.1.15,2013-03-17 14:26:00,
2013-03-17 07:36:00,39.6,34.2,30.06,SSW,195,2.0,2.0,81,0.00,,,0.00,7,Wunderground v.1.15,2013-03-17 14:36:00,
2013-03-17 07:46:00,39.6,34.2,30.07,SSE,160,1.0,1.0,81,0.00,,,0.00,12,Wunderground v.1.15,2013-03-17 14:46:00,
2013-03-17 07:56:00,39.5,34.2,30.07,ESE,114,2.0,5.0,81,0.00,,,0.00,33,Wunderground v.1.15,2013-03-17 14:56:00,
2013-03-17 08:06:00,39.5,33.8,30.07,SSE,151,3.0,3.0,80,0.00,,,0.00,49,Wunderground v.1.15,2013-03-17 15:06:00,
2013-03-17 08:16:00,39.6,33.6,30.08,South,169,3.0,3.0,79,0.00,,,0.00,49,Wunderground v.1.15,2013-03-17 15:16:00,
2013-03-17 08:31:00,39.6,33.6,30.09,SSE,155,3.0,3.0,79,0.00,,,0.00,67,Wunderground v.1.15,2013-03-17 15:31:00,
2013-03-17 08:41:00,39.6,33.3,30.09,ESE,113,2.0,2.0,78,0.00,,,0.00,62,Wunderground v.1.15,2013-03-17 15:41:00,
2013-03-17 08:47:00,39.5,33.2,30.10,South,172,3.0,3.0,78,0.00,,,0.00,72,Wunderground v.1.15,2013-03-17 15:47:00,
2013-03-17 09:00:00,39.6,32.7,30.10,South,176,3.0,3.0,76,0.00,,,0.00,139,Wunderground v.1.15,2013-03-17 16:00:00,
2013-03-17 09:05:00,39.8,32.8,30.10,SSW,198,2.0,7.0,76,0.00,,,0.00,146,Wunderground v.1.15,2013-03-17 16:05:00,
2013-03-17 09:16:00,40.1,33.1,30.10,SSE,164,3.0,10.0,76,0.00,,,0.00,137,Wunderground v.1.15,2013-03-17 16:16:00,
2013-03-17 09:26:00,40.2,32.9,30.10,ESE,112,4.0,5.0,75,0.00,,,0.00,204,Wunderground v.1.15,2013-03-17 16:26:00,
2013-03-17 09:36:00,40.6,33.0,30.11,SSE,160,3.0,4.0,74,0.00,,,0.00,100,Wunderground v.1.15,2013-03-17 16:36:00,
2013-03-17 09:46:00,40.6,33.0,30.12,SSW,209,3.0,8.0,74,0.00,,,0.00,113,Wunderground v.1.15,2013-03-17 16:46:00,
2013-03-17 09:56:00,40.8,32.8,30.12,SSW,196,3.0,8.0,73,0.00,,,0.00,128,Wunderground v.1.15,2013-03-17 16:56:00,
2013-03-17 10:06:00,41.2,32.5,30.12,South,174,4.0,5.0,71,0.00,,,0.00,447,Wunderground v.1.15,2013-03-17 17:06:00,
2013-03-17 10:21:00,42.6,32.0,30.12,South,182,5.0,5.0,66,0.00,,,0.00,472,Wunderground v.1.15,2013-03-17 17:21:00,
2013-03-17 10:26:00,42.9,31.6,30.12,SW,216,5.0,12.0,64,0.00,,,0.00,447,Wunderground v.1.15,2013-03-17 17:26:00,
2013-03-17 10:37:00,42.8,31.8,30.12,SE,145,6.0,10.0,65,0.00,,,0.00,194,Wunderground v.1.15,2013-03-17 17:37:00,
2013-03-17 10:46:00,43.1,32.1,30.13,SSW,196,3.0,8.0,65,0.00,,,0.00,255,Wunderground v.1.15,2013-03-17 17:46:00,
2013-03-17 10:55:00,42.6,32.0,30.13,South,189,7.0,12.0,66,0.00,,,0.00,234,Wunderground v.1.15,2013-03-17 17:55:00,
2013-03-17 11:06:00,43.2,31.8,30.13,South,188,5.0,6.0,64,0.00,,,0.00,472,Wunderground v.1.15,2013-03-17 18:06:00,
2013-03-17 11:15:00,44.2,32.0,30.14,SSW,196,2.0,5.0,62,0.00,,,0.00,208,Wunderground v.1.15,2013-03-17 18:15:00,
2013-03-17 11:30:00,44.3,32.5,30.13,SW,216,3.0,3.0,63,0.00,,,0.00,178,Wunderground v.1.15,2013-03-17 18:30:00,
2013-03-17 11:40:00,43.8,32.8,30.13,SSE,150,5.0,5.0,65,0.00,,,0.00,591,Wunderground v.1.15,2013-03-17 18:40:00,
2013-03-17 11:50:00,44.1,32.3,30.13,SSW,196,5.0,5.0,63,0.00,,,0.00,266,Wunderground v.1.15,2013-03-17 18:50:00,
2013-03-17 12:00:00,44.5,33.1,30.13,SSW,198,3.0,5.0,64,0.00,,,0.00,378,Wunderground v.1.15,2013-03-17 19:00:00,
2013-03-17 12:21:00,44.3,32.1,30.13,ESE,102,6.0,7.0,62,0.00,,,0.00,311,Wunderground v.1.15,2013-03-17 19:21:00,
2013-03-17 12:26:00,45.1,32.0,30.13,SSE,162,6.0,6.0,60,0.00,,,0.00,640,Wunderground v.1.15,2013-03-17 19:26:00,
2013-03-17 12:41:00,47.0,32.5,30.12,South,172,5.0,6.0,57,0.00,,,0.00,648,Wunderground v.1.15,2013-03-17 19:41:00,
2013-03-17 12:46:00,46.8,32.4,30.12,SSW,196,5.0,7.0,57,0.00,,,0.00,655,Wunderground v.1.15,2013-03-17 19:46:00,
2013-03-17 12:55:00,47.0,31.7,30.12,South,191,6.0,11.0,55,0.00,,,0.00,681,Wunderground v.1.15,2013-03-17 19:55:00,
2013-03-17 13:10:00,47.6,32.2,30.12,SSW,210,6.0,6.0,55,0.00,,,0.00,665,Wunderground v.1.15,2013-03-17 20:10:00,
2013-03-17 13:16:00,47.4,31.1,30.11,South,178,7.0,7.0,53,0.00,,,0.00,662,Wunderground v.1.15,2013-03-17 20:16:00,
2013-03-17 13:25:00,48.5,32.1,30.11,South,174,6.0,8.0,53,0.00,,,0.00,714,Wunderground v.1.15,2013-03-17 20:25:00,
2013-03-17 13:40:00,48.0,32.1,30.11,SSE,154,7.0,7.0,54,0.00,,,0.00,713,Wunderground v.1.15,2013-03-17 20:40:00,
2013-03-17 13:50:00,49.1,32.2,30.10,SSW,205,6.0,6.0,52,0.00,,,0.00,688,Wunderground v.1.15,2013-03-17 20:50:00,
2013-03-17 13:56:00,49.5,33.1,30.10,SSW,208,6.0,12.0,53,0.00,,,0.00,663,Wunderground v.1.15,2013-03-17 20:56:00,
2013-03-17 14:10:00,48.8,33.3,30.10,South,191,7.0,13.0,55,0.00,,,0.00,655,Wunderground v.1.15,2013-03-17 21:10:00,
2013-03-17 14:16:00,48.5,33.5,30.09,SSE,160,7.0,13.0,56,0.00,,,0.00,267,Wunderground v.1.15,2013-03-17 21:16:00,
2013-03-17 14:26:00,48.2,33.2,30.09,SW,217,7.0,12.0,56,0.00,,,0.00,355,Wunderground v.1.15,2013-03-17 21:26:00,
2013-03-17 14:31:00,47.9,32.9,30.09,SSW,205,8.0,8.0,56,0.00,,,0.00,554,Wunderground v.1.15,2013-03-17 21:31:00,
2013-03-17 14:36:00,48.2,33.7,30.09,South,174,7.0,8.0,57,0.00,,,0.00,711,Wunderground v.1.15,2013-03-17 21:36:00,
2013-03-17 14:41:00,48.9,33.4,30.09,South,185,6.0,7.0,55,0.00,,,0.00,700,Wunderground v.1.15,2013-03-17 21:41:00,
2013-03-17 14:46:00,48.8,33.8,30.09,SSW,208,7.0,13.0,56,0.00,,,0.00,589,Wunderground v.1.15,2013-03-17 21:46:00,
2013-03-17 15:00:00,48.2,33.2,30.09,SSW,200,9.0,17.0,56,0.00,,,0.00,220,Wunderground v.1.15,2013-03-17 22:00:00,
2013-03-17 15:05:00,47.9,32.9,30.09,South,191,8.0,17.0,56,0.00,,,0.00,194,Wunderground v.1.15,2013-03-17 22:05:00,
2013-03-17 15:20:00,47.4,32.9,30.09,South,172,6.0,9.0,57,0.00,,,0.00,155,Wunderground v.1.15,2013-03-17 22:20:00,
2013-03-17 15:26:00,47.0,32.1,30.09,SSW,210,8.0,9.0,56,0.00,,,0.00,167,Wunderground v.1.15,2013-03-17 22:26:00,
2013-03-17 15:36:00,47.1,31.3,30.09,SSW,202,8.0,8.0,54,0.00,,,0.00,157,Wunderground v.1.15,2013-03-17 22:36:00,
2013-03-17 15:46:00,47.0,32.1,30.10,South,191,8.0,14.0,56,0.00,,,0.00,143,Wunderground v.1.15,2013-03-17 22:46:00,
2013-03-17 15:56:00,46.5,32.5,30.10,SSW,203,9.0,13.0,58,0.00,,,0.00,88,Wunderground v.1.15,2013-03-17 22:56:00,
2013-03-17 16:06:00,45.8,31.9,30.10,South,178,7.0,12.0,58,0.00,,,0.00,97,Wunderground v.1.15,2013-03-17 23:06:00,
2013-03-17 16:16:00,45.7,33.4,30.10,South,182,2.0,2.0,62,0.00,,,0.00,79,Wunderground v.1.15,2013-03-17 23:16:00,
2013-03-17 16:26:00,46.2,31.8,30.10,South,184,6.0,6.0,57,0.00,,,0.00,72,Wunderground v.1.15,2013-03-17 23:26:00,
2013-03-17 16:41:00,45.8,33.1,30.10,NW,306,4.0,4.0,61,0.00,,,0.00,33,Wunderground v.1.15,2013-03-17 23:41:00,
2013-03-17 16:51:00,44.6,34.7,30.11,WNW,299,3.0,3.0,68,0.00,,,0.00,33,Wunderground v.1.15,2013-03-17 23:51:00,
2013-03-17 17:00:00,44.2,35.4,30.11,West,263,2.0,2.0,71,0.00,,,0.01,51,Wunderground v.1.15,2013-03-18 00:00:00,
2013-03-17 17:10:00,43.8,36.4,30.11,West,265,0.0,0.0,75,0.00,,,0.01,48,Wunderground v.1.15,2013-03-18 00:10:00,
2013-03-17 17:20:00,43.8,36.0,30.11,West,265,0.0,0.0,74,0.00,,,0.01,33,Wunderground v.1.15,2013-03-18 00:20:00,
2013-03-17 17:26:00,43.9,36.1,30.11,West,265,0.0,0.0,74,0.00,,,0.01,33,Wunderground v.1.15,2013-03-18 00:26:00,
2013-03-17 17:40:00,43.5,35.8,30.11,North,353,2.0,3.0,74,0.00,,,0.01,42,Wunderground v.1.15,2013-03-18 00:40:00,
2013-03-17 17:50:00,43.1,36.4,30.11,NNW,335,3.0,3.0,77,0.00,,,0.01,37,Wunderground v.1.15,2013-03-18 00:50:00,
2013-03-17 17:56:00,42.9,36.2,30.11,WNW,302,2.0,3.0,77,0.00,,,0.01,30,Wunderground v.1.15,2013-03-18 00:56:00,
2013-03-17 18:06:00,42.8,36.4,30.11,NNW,340,1.0,2.0,78,0.00,,,0.01,25,Wunderground v.1.15,2013-03-18 01:06:00,
2013-03-17 18:16:00,42.5,36.8,30.11,North,350,1.0,3.0,80,0.00,,,0.01,28,Wunderground v.1.15,2013-03-18 01:16:00,
2013-03-17 18:31:00,41.6,36.5,30.11,NNW,342,2.0,3.0,82,0.00,,,0.01,28,Wunderground v.1.15,2013-03-18 01:31:00,
2013-03-17 18:36:00,41.5,36.4,30.11,NNW,339,1.0,3.0,82,0.00,,,0.01,26,Wunderground v.1.15,2013-03-18 01:36:00,
2013-03-17 18:47:00,41.2,36.4,30.11,North,354,1.0,1.0,83,0.00,,,0.01,18,Wunderground v.1.15,2013-03-18 01:47:00,
2013-03-17 18:56:00,41.1,36.3,30.11,NNW,332,1.0,2.0,83,0.00,,,0.01,11,Wunderground v.1.15,2013-03-18 01:56:00,
2013-03-17 19:05:00,41.1,36.6,30.11,North,349,1.0,2.0,84,0.00,,,0.01,5,Wunderground v.1.15,2013-03-18 02:05:00,
2013-03-17 19:15:00,40.9,36.7,30.11,NNW,346,1.0,1.0,85,0.00,,,0.02,0,Wunderground v.1.15,2013-03-18 02:15:00,
2013-03-17 19:26:00,40.6,36.7,30.11,NNW,346,0.0,1.0,86,0.00,,,0.02,0,Wunderground v.1.15,2013-03-18 02:26:00,
2013-03-17 19:40:00,40.6,36.7,30.11,NNW,346,0.0,0.0,86,0.00,,,0.02,0,Wunderground v.1.15,2013-03-18 02:40:00,
2013-03-17 19:50:00,40.3,36.1,30.11,NNW,346,0.0,0.0,85,0.00,,,0.02,0,Wunderground v.1.15,2013-03-18 02:50:00,
2013-03-17 20:00:00,40.3,36.4,30.11,East,89,0.0,2.0,86,0.00,,,0.02,0,Wunderground v.1.15,2013-03-18 03:00:00,
2013-03-17 20:10:00,40.2,36.6,30.11,ESE,106,1.0,1.0,87,0.00,,,0.02,0,Wunderground v.1.15,2013-03-18 03:10:00,
2013-03-17 20:16:00,40.2,36.6,30.11,ESE,103,1.0,1.0,87,0.00,,,0.02,0,Wunderground v.1.15,2013-03-18 03:16:00,
2013-03-17 20:31:00,39.8,36.2,30.11,ESE,109,2.0,3.0,87,0.00,,,0.02,0,Wunderground v.1.15,2013-03-18 03:31:00,
2013-03-17 20:36:00,39.8,36.2,30.11,ESE,102,2.0,3.0,87,0.00,,,0.02,0,Wunderground v.1.15,2013-03-18 03:36:00,
2013-03-17 20:51:00,39.6,35.5,30.12,ESE,107,1.0,2.0,85,0.00,,,0.02,0,Wunderground v.1.15,2013-03-18 03:51:00,
2013-03-17 20:56:00,39.5,35.4,30.12,ESE,112,2.0,2.0,85,0.00,,,0.02,0,Wunderground v.1.15,2013-03-18 03:56:00,
2013-03-17 21:01:00,39.5,35.7,30.12,SE,126,1.0,2.0,86,0.00,,,0.02,0,Wunderground v.1.15,2013-03-18 04:01:00,
2013-03-17 21:11:00,39.5,36.0,30.12,East,88,1.0,1.0,87,0.00,,,0.02,0,Wunderground v.1.15,2013-03-18 04:11:00,
2013-03-17 21:16:00,39.3,35.5,30.12,East,96,1.0,1.0,86,0.00,,,0.02,0,Wunderground v.1.15,2013-03-18 04:16:00,
2013-03-17 21:21:00,39.3,35.8,30.12,ESE,103,1.0,1.0,87,0.00,,,0.02,0,Wunderground v.1.15,2013-03-18 04:21:00,
2013-03-17 21:26:00,39.2,35.7,30.12,ESE,106,2.0,2.0,87,0.00,,,0.03,0,Wunderground v.1.15,2013-03-18 04:26:00,
2013-03-17 21:31:00,39.2,35.9,30.12,East,99,2.0,2.0,88,0.00,,,0.03,0,Wunderground v.1.15,2013-03-18 04:31:00,
2013-03-17 21:37:00,39.2,35.9,30.12,East,99,1.0,2.0,88,0.00,,,0.03,0,Wunderground v.1.15,2013-03-18 04:37:00,
2013-03-17 21:47:00,39.3,36.3,30.12,East,99,1.0,2.0,89,0.00,,,0.03,0,Wunderground v.1.15,2013-03-18 04:47:00,
2013-03-17 21:57:00,39.3,36.3,30.12,East,99,0.0,1.0,89,0.00,,,0.03,0,Wunderground v.1.15,2013-03-18 04:57:00,
2013-03-17 22:10:00,39.6,34.9,30.13,South,189,3.0,6.0,83,0.00,,,0.03,0,Wunderground v.1.15,2013-03-18 05:10:00,
2013-03-17 22:15:00,39.9,34.5,30.12,South,175,4.0,6.0,81,0.00,,,0.03,0,Wunderground v.1.15,2013-03-18 05:15:00,
2013-03-17 22:26:00,40.1,34.4,30.12,South,175,6.0,6.0,80,0.00,,,0.03,0,Wunderground v.1.15,2013-03-18 05:26:00,
2013-03-17 22:40:00,40.1,34.4,30.13,South,181,4.0,5.0,80,0.00,,,0.03,0,Wunderground v.1.15,2013-03-18 05:40:00,
2013-03-17 22:46:00,40.1,34.4,30.13,South,185,4.0,5.0,80,0.00,,,0.03,0,Wunderground v.1.15,2013-03-18 05:46:00,
2013-03-17 22:56:00,40.1,34.4,30.13,SW,217,7.0,7.0,80,0.00,,,0.03,0,Wunderground v.1.15,2013-03-18 05:56:00,
2013-03-17 23:10:00,39.9,34.2,30.13,SSW,205,4.0,11.0,80,0.00,,,0.03,0,Wunderground v.1.15,2013-03-18 06:10:00,
2013-03-17 23:21:00,39.9,34.2,30.13,South,189,6.0,10.0,80,0.00,,,0.03,0,Wunderground v.1.15,2013-03-18 06:21:00,
2013-03-17 23:26:00,39.9,34.2,30.13,SW,216,6.0,12.0,80,0.00,,,0.03,0,Wunderground v.1.15,2013-03-18 06:26:00,
2013-03-17 23:41:00,39.9,34.5,30.13,SSW,199,6.0,6.0,81,0.00,,,0.03,0,Wunderground v.1.15,2013-03-18 06:41:00,
2013-03-17 23:46:00,39.9,34.9,30.12,SE,137,3.0,6.0,82,0.00,,,0.03,0,Wunderground v.1.15,2013-03-18 06:46:00,
2013-03-17 23:56:00,39.9,34.5,30.12,SSE,147,6.0,11.0,81,0.00,,,0.03,0,Wunderground v.1.15,2013-03-18 06:56:00,